CW0001 Weather Reports


time (UTC)temp
C
wind
direction
speed
KPH
gust
KPH
rain 1hr
cm
rain 24hr
cm
rain mn
cm
humidity
%
barometer
mb
20260505171128 18 214 4.8 8.0 0.00 0.00 0.00 45 1013.0
20260505170627 18 235 3.2 6.4 0.00 0.00 0.00 43 1013.0
20260505170128 18 215 1.6 3.2 0.00 0.00 0.00 44 1013.0
20260505165627 18 227 3.2 6.4 0.00 0.00 0.00 46 1013.0
20260505165128 17 202 3.2 8.0 0.00 0.00 0.00 46 1013.0
20260505164627 17 196 3.2 4.8 0.00 0.00 0.00 47 1013.0
20260505164128 17 262 3.2 6.4 0.00 0.00 0.00 49 1013.0
20260505163627 17 229 3.2 4.8 0.00 0.00 0.00 48 1013.0
20260505163128 17 225 3.2 6.4 0.00 0.00 0.00 50 1013.0
20260505162628 16 202 3.2 3.2 0.00 0.00 0.00 49 1013.0
20260505162127 16 191 1.6 3.2 0.00 0.00 0.00 49 1013.0
20260505161627 16 158 3.2 6.4 0.00 0.00 0.00 50 1013.0
20260505161127 16 242 3.2 6.4 0.00 0.00 0.00 49 1013.0
20260505160628 15 122 1.6 3.2 0.00 0.00 0.00 51 1013.0
20260505160128 15 162 1.6 4.8 0.00 0.00 0.00 51 1013.0
20260505153127 14 214 1.6 3.2 0.00 0.00 0.00 53 1014.0
20260505152628 14 168 3.2 3.2 0.00 0.00 0.00 54 1014.0
20260505152127 15 163 3.2 4.8 0.00 0.00 0.00 52 1014.0
20260505151627 14 177 3.2 4.8 0.00 0.00 0.00 52 1014.0
20260505151128 13 168 1.6 4.8 0.00 0.00 0.00 54 1014.0
20260505150630 13 122 1.6 1.6 0.00 0.00 0.00 54 1014.0
20260505150129 13 121 1.6 3.2 0.00 0.00 0.00 56 1014.0
20260505140628 8 84 0.0 1.6 0.00 0.00 0.00 70 1014.0
20260505140127 7 77 0.0 0.0 0.00 0.00 0.00 73 1014.0
20260505130127 3 108 3.2 3.2 0.00 0.00 0.00 83 1013.0
20260505124628 4 109 3.2 3.2 0.00 0.00 0.00 82 1013.0
20260505124127 4 123 4.8 4.8 0.00 0.00 0.00 82 1013.0
20260505123627 4 120 4.8 4.8 0.00 0.00 0.00 83 1013.0
20260505123130 4 110 3.2 4.8 0.00 0.00 0.00 83 1013.0
20260505122627 4 101 1.6 3.2 0.00 0.00 0.00 83 1013.0
20260505122128 4 111 3.2 3.2 0.00 0.00 0.00 82 1013.0
20260505121627 4 162 1.6 3.2 0.00 0.00 0.00 82 1013.0
20260505121127 4 123 3.2 3.2 0.00 0.00 0.00 81 1013.0
20260505120628 4 120 3.2 3.2 0.00 0.00 0.00 82 1013.0
20260505120127 4 133 1.6 3.2 0.00 0.00 0.00 82 1013.0
20260505115629 4 124 3.2 3.2 0.00 0.00 0.00 83 1013.0
20260505115127 5 71 1.6 1.6 0.00 0.00 0.00 83 1012.0
20260505114627 5 112 3.2 3.2 0.00 0.00 0.00 83 1012.0
20260505114127 5 128 3.2 3.2 0.00 0.00 0.00 81 1012.0
20260505113627 5 0 0.0 0.0 0.00 0.00 0.00 80 1012.0
20260505113128 5 0 0.0 0.0 0.00 0.00 0.00 80 1012.0
20260505112627 5 120 1.6 3.2 0.00 0.00 0.00 79 1012.0
20260505112128 5 0 0.0 0.0 0.00 0.00 0.00 80 1012.0
20260505111627 6 74 0.0 0.0 0.00 0.00 0.00 78 1012.0
20260505111127 6 138 1.6 3.2 0.00 0.00 0.00 76 1012.0
20260505110628 6 0 0.0 0.0 0.00 0.00 0.00 76 1012.0
20260505110127 5 216 3.2 4.8 0.00 0.00 0.00 77 1012.0
20260505102127 7 163 0.0 0.0 0.00 0.00 0.00 73 1012.0
20260505101627 7 227 0.0 1.6 0.00 0.00 0.00 73 1012.0
20260505101127 7 200 1.6 3.2 0.00 0.00 0.00 73 1012.0
20260505100627 7 135 1.6 1.6 0.00 0.00 0.00 72 1011.0
20260505100128 7 0 0.0 0.0 0.00 0.00 0.00 72 1011.0
20260505095629 7 0 0.0 0.0 0.00 0.00 0.00 72 1011.0
20260505095127 7 147 1.6 1.6 0.00 0.00 0.00 72 1011.0
20260505094629 8 185 1.6 3.2 0.00 0.00 0.00 71 1011.0
20260505094127 7 228 0.0 1.6 0.00 0.00 0.00 70 1011.0
20260505093628 8 0 0.0 0.0 0.00 0.00 0.00 70 1011.0
20260505093127 8 75 3.2 4.8 0.00 0.00 0.00 69 1011.0
20260505092628 8 191 3.2 3.2 0.00 0.00 0.00 69 1011.0
20260505092128 7 229 0.0 1.6 0.00 0.00 0.00 71 1011.0
20260505091627 8 0 0.0 0.0 0.00 0.00 0.00 69 1011.0
20260505091127 8 71 0.0 1.6 0.00 0.00 0.00 71 1011.0
20260505090627 8 174 1.6 1.6 0.00 0.00 0.00 71 1011.0
20260505090129 8 155 0.0 1.6 0.00 0.00 0.00 69 1011.0
20260505085627 8 183 3.2 3.2 0.00 0.00 0.00 68 1011.0
20260505085127 8 195 3.2 3.2 0.00 0.00 0.00 68 1011.0
20260505084628 9 136 1.6 3.2 0.00 0.00 0.00 68 1011.0
20260505083724 9 0 0.0 0.0 0.00 0.00 0.00 67 1011.0
20260505083128 9 0 0.0 0.0 0.00 0.00 0.00 66 1011.0
20260505082627 10 0 0.0 0.0 0.00 0.00 0.00 66 1011.0
20260505082127 10 219 1.6 3.2 0.00 0.00 0.00 65 1011.0
20260505081627 10 176 1.6 3.2 0.00 0.00 0.00 65 1011.0
20260505081127 10 149 0.0 1.6 0.00 0.00 0.00 66 1011.0
20260505080627 10 205 1.6 1.6 0.00 0.00 0.00 64 1011.0
20260505080127 11 193 1.6 1.6 0.00 0.00 0.00 64 1011.0
20260505075627 11 200 0.0 1.6 0.00 0.00 0.00 62 1011.0
20260505075127 11 179 0.0 1.6 0.00 0.00 0.00 62 1010.0
20260505074630 11 167 1.6 1.6 0.00 0.00 0.00 62 1010.0
20260505074127 12 124 1.6 1.6 0.00 0.00 0.00 61 1010.0
20260505073627 13 0 0.0 0.0 0.00 0.00 0.00 58 1010.0
20260505073127 13 0 0.0 0.0 0.00 0.00 0.00 57 1010.0
20260505072627 13 159 3.2 4.8 0.00 0.00 0.00 55 1010.0
20260505072128 13 205 3.2 4.8 0.00 0.00 0.00 55 1010.0
20260505071627 14 149 0.0 1.6 0.00 0.00 0.00 56 1010.0
20260505071128 14 180 0.0 3.2 0.00 0.00 0.00 55 1010.0
20260505070627 15 234 3.2 4.8 0.00 0.00 0.00 52 1010.0
20260505070129 16 165 4.8 8.0 0.00 0.00 0.00 47 1010.0
20260505065627 16 95 3.2 4.8 0.00 0.00 0.00 46 1010.0
20260505065128 16 126 3.2 6.4 0.00 0.00 0.00 47 1010.0
20260505064628 16 78 6.4 11.3 0.00 0.00 0.00 46 1010.0
20260505064127 16 89 8.0 14.5 0.00 0.00 0.00 45 1010.0
20260505063627 16 90 6.4 11.3 0.00 0.00 0.00 45 1010.0
20260505063128 16 91 6.4 9.7 0.00 0.00 0.00 44 1010.0
20260505062628 16 86 8.0 12.9 0.00 0.00 0.00 45 1009.0
20260505062127 16 93 6.4 9.7 0.00 0.00 0.00 45 1009.0
20260505061627 16 90 8.0 12.9 0.00 0.00 0.00 45 1009.0
20260505061127 16 113 6.4 8.0 0.00 0.00 0.00 48 1009.0
20260505060627 16 123 4.8 6.4 0.00 0.00 0.00 47 1009.0
20260505060127 16 121 6.4 9.7 0.00 0.00 0.00 46 1009.0
20260505055627 17 103 6.4 9.7 0.00 0.00 0.00 46 1009.0
20260505055127 17 127 3.2 6.4 0.00 0.00 0.00 44 1009.0
20260505054628 17 121 4.8 6.4 0.00 0.00 0.00 44 1009.0
20260505054127 18 127 4.8 6.4 0.00 0.00 0.00 44 1009.0
20260505053627 18 131 3.2 8.0 0.00 0.00 0.00 43 1009.0
20260505053127 18 139 3.2 4.8 0.00 0.00 0.00 41 1009.0
20260505052627 18 104 3.2 6.4 0.00 0.00 0.00 41 1009.0
20260505052127 19 98 3.2 6.4 0.00 0.00 0.00 41 1009.0
20260505051627 19 99 6.4 9.7 0.00 0.00 0.00 39 1009.0
20260505051127 18 98 6.4 9.7 0.00 0.00 0.00 40 1009.0
20260505050627 18 87 3.2 8.0 0.00 0.00 0.00 40 1009.0
20260505050127 18 101 3.2 6.4 0.00 0.00 0.00 42 1009.0
20260505041627 17 78 1.6 3.2 0.00 0.00 0.00 47 1008.0
20260505041127 17 54 3.2 4.8 0.00 0.00 0.00 48 1008.0
20260505040628 18 105 3.2 4.8 0.00 0.00 0.00 51 1008.0
20260505040127 18 94 4.8 9.7 0.00 0.00 0.00 48 1008.0
20260505035628 18 112 3.2 6.4 0.00 0.00 0.00 53 1008.0
20260505035127 20 113 3.2 11.3 0.00 0.00 0.00 49 1008.0
20260505034627 20 107 6.4 9.7 0.00 0.00 0.00 42 1008.0
20260505034127 21 130 8.0 14.5 0.00 0.00 0.00 41 1007.0
20260505033628 21 94 4.8 12.9 0.00 0.00 0.00 40 1007.0
20260505033127 22 108 4.8 9.7 0.00 0.00 0.00 37 1007.0
20260505032628 23 176 1.6 3.2 0.00 0.00 0.00 36 1007.0
20260505032127 24 69 1.6 4.8 0.00 0.00 0.00 33 1007.0
20260505031627 24 47 6.4 9.7 0.00 0.00 0.00 30 1007.0
20260505031127 24 100 6.4 9.7 0.00 0.00 0.00 32 1007.0
20260505030627 24 113 9.7 14.5 0.00 0.00 0.00 31 1007.0
20260505030128 24 102 12.9 17.7 0.00 0.00 0.00 31 1007.0
20260505025628 24 89 14.5 17.7 0.00 0.00 0.00 32 1007.0
20260505025127 25 65 6.4 11.3 0.00 0.00 0.00 30 1007.0
20260505024628 25 131 3.2 4.8 0.00 0.00 0.00 35 1007.0
20260505024127 25 126 4.8 6.4 0.00 0.00 0.00 32 1007.0
20260505023627 25 111 4.8 8.0 0.00 0.00 0.00 31 1007.0
20260505023127 26 115 6.4 9.7 0.00 0.00 0.00 30 1007.0
20260505022627 26 117 9.7 14.5 0.00 0.00 0.00 29 1007.0
20260505022127 26 101 6.4 8.0 0.00 0.00 0.00 31 1007.0
20260505021626 26 101 6.4 9.7 0.00 0.00 0.00 31 1007.0
20260505021131 26 103 11.3 14.5 0.00 0.00 0.00 29 1007.0
20260505020627 26 130 9.7 12.9 0.00 0.00 0.00 32 1007.0
20260505020127 26 149 3.2 4.8 0.00 0.00 0.00 32 1007.0
20260505015627 26 162 3.2 4.8 0.00 0.00 0.00 33 1007.0
20260505015127 26 150 4.8 6.4 0.00 0.00 0.00 32 1007.0
20260505014629 26 158 4.8 6.4 0.00 0.00 0.00 33 1007.0
20260505014127 26 134 4.8 6.4 0.00 0.00 0.00 33 1007.0
20260505013627 26 111 4.8 8.0 0.00 0.00 0.00 33 1007.0
20260505013127 27 122 4.8 4.8 0.00 0.00 0.00 33 1007.0
20260505012627 27 152 4.8 8.0 0.00 0.00 0.00 31 1007.0
20260505012127 26 164 3.2 6.4 0.00 0.00 0.00 32 1007.0
20260505011627 26 104 6.4 9.7 0.00 0.00 0.00 32 1007.0
20260505011127 26 139 3.2 4.8 0.00 0.00 0.00 30 1007.0
20260505010627 27 96 6.4 9.7 0.00 0.00 0.00 30 1007.0
20260505010127 27 132 4.8 6.4 0.00 0.00 0.00 31 1007.0
20260505005627 26 122 3.2 6.4 0.00 0.00 0.00 30 1007.0
20260505005128 26 79 8.0 9.7 0.00 0.00 0.00 31 1007.0
20260505004628 26 109 3.2 4.8 0.00 0.00 0.00 32 1007.0
20260505004127 26 130 8.0 14.5 0.00 0.00 0.00 30 1007.0
20260505003627 26 129 8.0 11.3 0.00 0.00 0.00 31 1007.0
20260505003127 26 115 6.4 8.0 0.00 0.00 0.00 33 1007.0
20260505002628 26 102 6.4 9.7 0.00 0.00 0.00 32 1007.0
20260505002128 26 114 8.0 11.3 0.00 0.00 0.00 32 1007.0
20260505001627 26 126 9.7 14.5 0.00 0.00 0.00 32 1007.0
20260505001127 26 106 9.7 14.5 0.00 0.00 0.00 31 1007.0
20260505000628 26 105 11.3 17.7 0.00 0.00 0.00 32 1007.0
20260505000127 26 135 4.8 9.7 0.00 0.00 0.00 34 1007.0
20260504235627 26 117 4.8 9.7 0.00 0.00 0.00 33 1007.0
20260504235128 26 120 6.4 11.3 0.00 0.00 0.00 33 1007.0
20260504234627 26 121 6.4 12.9 0.00 0.00 0.00 34 1007.0
20260504234127 26 124 8.0 9.7 0.00 0.00 0.00 33 1007.0
20260504233628 26 99 8.0 16.1 0.00 0.00 0.00 33 1007.0
20260504233127 26 102 8.0 11.3 0.00 0.00 0.00 33 1007.0
20260504232627 26 112 6.4 8.0 0.00 0.00 0.00 31 1007.0
20260504232127 26 110 8.0 12.9 0.00 0.00 0.00 33 1007.0
20260504231627 25 105 6.4 9.7 0.00 0.00 0.00 34 1007.0
20260504231127 25 102 9.7 17.7 0.00 0.00 0.00 33 1007.0
20260504230628 25 111 8.0 12.9 0.00 0.00 0.00 35 1007.0
20260504230128 26 104 8.0 9.7 0.00 0.00 0.00 34 1008.0
20260504225632 26 46 6.4 9.7 0.00 0.00 0.00 31 1008.0
20260504225128 26 285 0.0 3.2 0.00 0.00 0.00 32 1008.0
20260504224627 26 291 6.4 11.3 0.00 0.00 0.00 31 1008.0
20260504224127 26 296 6.4 12.9 0.00 0.00 0.00 32 1008.0
20260504223629 26 278 6.4 11.3 0.00 0.00 0.00 28 1008.0
20260504223129 27 294 3.2 6.4 0.00 0.00 0.00 30 1008.0
20260504222627 27 230 4.8 8.0 0.00 0.00 0.00 30 1008.0
20260504222127 27 274 6.4 11.3 0.00 0.00 0.00 30 1008.0
20260504221627 27 280 6.4 12.9 0.00 0.00 0.00 31 1008.0
20260504221128 27 261 8.0 12.9 0.00 0.00 0.00 31 1008.0
20260504220627 27 280 8.0 11.3 0.00 0.00 0.00 31 1008.0
20260504220127 27 261 3.2 6.4 0.00 0.00 0.00 30 1008.0
20260504215627 27 290 9.7 12.9 0.00 0.00 0.00 31 1008.0
20260504215127 27 267 4.8 8.0 0.00 0.00 0.00 31 1008.0
20260504214627 27 236 4.8 8.0 0.00 0.00 0.00 31 1008.0
20260504214127 27 268 9.7 16.1 0.00 0.00 0.00 31 1008.0
20260504213627 27 270 8.0 14.5 0.00 0.00 0.00 31 1008.0
20260504213127 27 266 8.0 11.3 0.00 0.00 0.00 31 1008.0
20260504212627 26 257 6.4 9.7 0.00 0.00 0.00 32 1008.0
20260504212127 26 269 8.0 17.7 0.00 0.00 0.00 32 1008.0
20260504211628 26 260 6.4 12.9 0.00 0.00 0.00 32 1008.0
20260504211128 26 239 8.0 12.9 0.00 0.00 0.00 32 1008.0
20260504210627 26 265 4.8 9.7 0.00 0.00 0.00 33 1008.0
20260504210128 26 255 9.7 14.5 0.00 0.00 0.00 31 1008.0
20260504205627 25 268 6.4 12.9 0.00 0.00 0.00 34 1008.0
20260504205128 25 270 8.0 11.3 0.00 0.00 0.00 33 1008.0
20260504204627 26 265 9.7 14.5 0.00 0.00 0.00 33 1008.0
20260504204129 26 264 9.7 14.5 0.00 0.00 0.00 33 1008.0
20260504203628 25 279 8.0 14.5 0.00 0.00 0.00 35 1008.0
20260504203127 25 248 8.0 14.5 0.00 0.00 0.00 33 1008.0
20260504202627 25 268 9.7 16.1 0.00 0.00 0.00 33 1008.0
20260504202127 25 264 9.7 14.5 0.00 0.00 0.00 33 1008.0
20260504201627 25 264 4.8 11.3 0.00 0.00 0.00 34 1008.0
20260504201127 25 271 8.0 16.1 0.00 0.00 0.00 34 1008.0
20260504200627 25 258 8.0 12.9 0.00 0.00 0.00 35 1008.0
20260504200127 24 271 4.8 8.0 0.00 0.00 0.00 35 1009.0
20260504195627 25 259 8.0 12.9 0.00 0.00 0.00 34 1009.0
20260504195127 25 270 6.4 12.9 0.00 0.00 0.00 34 1008.0
20260504194627 25 268 8.0 16.1 0.00 0.00 0.00 34 1009.0
20260504194127 25 275 8.0 12.9 0.00 0.00 0.00 34 1009.0
20260504193628 25 254 6.4 9.7 0.00 0.00 0.00 35 1009.0
20260504193127 25 276 12.9 20.9 0.00 0.00 0.00 34 1009.0
20260504192627 25 255 6.4 14.5 0.00 0.00 0.00 35 1009.0
20260504192128 25 266 8.0 12.9 0.00 0.00 0.00 36 1009.0
20260504191627 25 251 8.0 16.1 0.00 0.00 0.00 35 1009.0
20260504191127 25 271 8.0 11.3 0.00 0.00 0.00 36 1009.0
20260504190627 25 282 8.0 11.3 0.00 0.00 0.00 37 1009.0
20260504190128 24 278 9.7 14.5 0.00 0.00 0.00 36 1009.0
20260504185628 24 260 4.8 6.4 0.00 0.00 0.00 36 1009.0
20260504185127 24 254 8.0 12.9 0.00 0.00 0.00 37 1009.0
20260504184627 24 263 6.4 9.7 0.00 0.00 0.00 37 1009.0
20260504184127 23 286 9.7 16.1 0.00 0.00 0.00 37 1009.0
20260504183627 23 281 9.7 12.9 0.00 0.00 0.00 37 1009.0
20260504183127 23 285 6.4 9.7 0.00 0.00 0.00 37 1009.0
20260504182628 23 254 8.0 11.3 0.00 0.00 0.00 38 1009.0
20260504182127 23 272 6.4 9.7 0.00 0.00 0.00 38 1010.0
20260504181627 23 276 8.0 14.5 0.00 0.00 0.00 39 1010.0
20260504181127 22 278 6.4 11.3 0.00 0.00 0.00 39 1010.0
20260504180628 22 274 9.7 12.9 0.00 0.00 0.00 39 1010.0
20260504180128 22 268 9.7 12.9 0.00 0.00 0.00 41 1010.0
20260504175627 22 250 8.0 11.3 0.00 0.00 0.00 41 1010.0
20260504175127 22 250 8.0 14.5 0.00 0.00 0.00 41 1010.0
20260504174627 21 249 8.0 11.3 0.00 0.00 0.00 42 1010.0
20260504174127 21 262 6.4 9.7 0.00 0.00 0.00 42 1010.0
20260504173628 21 252 6.4 9.7 0.00 0.00 0.00 41 1010.0
20260504173127 21 262 9.7 14.5 0.00 0.00 0.00 41 1010.0
20260504172628 21 265 9.7 12.9 0.00 0.00 0.00 43 1010.0
20260504172127 20 278 8.0 14.5 0.00 0.00 0.00 44 1010.0
20260504171627 20 273 9.7 14.5 0.00 0.00 0.00 44 1010.0